X-SAT

Last updated on Thu Nov 21 2024 00:03:26 GMT+0000 (Coordinated Universal Time)

1 37389U 11015C 24325.52196582 .00000291 00000+0 14192-3 0 9993 2 37389 98.3002 320.9686 0013175 224.7166 135.2953 14.24879755705971
UTC large
Height (km)
Speed (km/s)
/
Latitude / Longitude
Inclination (degrees)
Orbital Period (minutes)
Azimuth
Elevation
Range (km)
Doppler Factor

Next 0 passes for location: London (51.5072 / 0.1276)

Sorry there are no passes over London.